Vertical_Velocity
-2 -2 -1 -1 -0 0 0 0 -1 -2 -1 -4 -6 -6 -5 -4 -1 1 1 -0 -1 -0 1 1 1 -1 -2 7 -2 6 -1 -12 -17 -6 8 -1 31 -11 -3 25 2 -5 0 -2 3
-2 -1 -1 -2 -3 -2 -1 0 -1 -1 -1 0 -1 -2 0 -1 -1 -0 -1 -0 -3 2 -0 -1 1 -0 -4 2 2 4 -2 -17 -16 -8 -4 -5 8 28 -0 -2 6 -1 2 -6 3
-1 -1 -0 -1 -3 -2 -2 -2 0 -0 -0 -0 0 2 0 -0 1 1 2 2 -1 1 0 0 2 1 -1 5 6 -5 -23 -2 3 7 12 -10 -30 -11 37 -7 -13 0 1 -4 0
0 -1 -0 0 -1 -1 -1 -3 -2 -0 -1 -1 -1 -1 2 3 -1 -0 0 0 -1 -0 -0 -3 1 1 -1 0 6 -6 -4 11 -10 -1 6 -10 3 -4 -9 -1 20 9 5 -2 -1
-0 -0 0 -1 1 1 -1 -0 -2 -2 0 -2 -3 -3 -1 -1 3 0 1 1 1 1 -1 -2 1 4 1 -2 6 -7 14 -3 19 7 -10 5 -19 7 -2 23 39 -0 2 1 3
-2 -2 -2 -0 -2 -0 -0 -1 -0 -1 -1 0 -0 -0 -1 -4 -3 -2 -1 1 0 -2 -2 -1 0 2 -4 -3 -4 5 4 -3 -2 4 -2 -3 -3 18 13 -0 2 1 6 6 3
0 -1 0 -2 -1 -2 -0 -0 -0 -2 -2 -2 -6 1 -0 -4 2 0 1 1 1 -1 0 2 -3 0 3 -2 3 4 -7 6 -5 -2 4 1 2 -53 -16 3 -9 34 10 -0 -0
0 -0 -3 -0 -1 -2 -2 0 1 1 -0 -1 -1 -2 1 -1 -1 -0 -5 -1 -5 0 -2 2 2 1 3 4 2 1 2 4 -5 -2 2 5 -56 21 -6 21 -6 10 9 4 -4
-1 -0 1 -1 0 1 -2 0 -1 -1 -0 0 -1 -1 -2 0 -2 -4 -3 1 0 1 -9 -11 -1 -3 9 3 3 -0 -7 -2 -2 -1 11 -2 -10 -14 7 8 -4 3 12 0 10
0 0 2 -1 -1 -0 -2 2 -1 -3 1 -2 -2 -0 -2 -3 -3 -1 -1 4 -3 -9 -4 7 14 8 3 1 -20 -3 -2 3 -5 8 9 3 -4 2 -13 -5 5 12 14 12 0
-2 -2 2 2 -0 1 0 0 -1 -4 -7 2 1 3 -4 -2 -2 0 -0 1 -1 -1 2 4 7 -5 -3 6 11 5 6 12 -7 11 17 7 -9 -11 -12 -1 7 18 14 5 -0
-0 1 -1 -0 -0 0 1 -4 2 -4 -11 -0 1 1 -3 -2 -2 -0 -0 -3 0 -6 -4 4 -12 -4 -3 5 -0 -4 2 -13 1 7 8 -0 -6 6 -8 -14 -1 19 5 3 10
-3 -2 -1 -1 -0 -6 -1 1 -1 1 -2 1 0 -1 -1 -2 -1 -1 -1 -2 -1 -2 -4 -8 -3 5 -8 8 3 -5 -4 -2 3 21 3 -6 -13 -18 -20 -25 -5 24 13 14 3
-3 -2 -5 0 0 0 -0 1 -3 0 -1 -0 -2 -2 -1 -0 -1 -2 -1 -2 -3 -6 1 -4 -8 3 3 -2 3 4 2 4 2 -5 4 3 -3 -15 -5 -9 22 3 6 -3 -20
-2 -2 -3 -2 -4 2 -0 -1 1 0 2 -2 -2 -1 -2 -1 4 -2 -4 0 -1 5 -2 2 -2 -2 17 5 19 -18 -1 5 21 3 5 -3 2 -17 -33 1 -12 -2 9 5 -7
1 -2 -2 -2 -2 -0 -2 -2 2 1 -4 -2 -3 1 -1 1 -1 -1 -0 -2 -1 -1 -1 -1 -0 -1 3 9 2 11 -1 1 3 4 3 -5 -2 -17 -8 29 5 2 14 4 10
1 2 -1 -0 0 2 -1 -1 3 1 -1 2 0 -1 1 -2 -2 1 1 -0 -2 -5 -1 -0 -1 4 1 5 2 29 7 3 6 5 4 4 1 -24 -5 -5 1 -1 -4 -3 -29
0 -1 -1 2 2 -0 -1 3 1 -0 2 0 -1 0 3 5 -0 2 2 -2 2 2 -0 0 -1 -3 1 -2 10 -5 -2 4 2 -0 2 -1 -3 6 10 -2 -2 -0 4 -1 -13
-2 -0 1 1 -1 2 -1 2 -1 1 1 0 -1 -1 -2 3 -1 -4 -2 2 1 7 0 -0 -2 1 -7 10 -2 -3 -6 -7 -4 -4 2 -3 0 2 4 5 3 -4 -11 9 -50
-1 -3 -1 2 0 1 5 0 2 5 0 1 1 5 1 -1 1 8 -5 -1 -2 -3 6 4 -5 -2 -2 -8 -6 5 6 10 5 1 -0 -1 -4 8 -5 8 1 -5 -0 -16 11
1 -3 -0 -3 -1 1 -1 0 1 1 1 0 -1 -0 -1 1 -0 -1 -1 1 3 -0 1 6 8 -9 3 -1 -1 -6 -4 -0 -3 -2 2 1 1 12 -2 -7 3 4 18 17 8
-3 -0 1 0 1 2 -1 -2 -3 -1 1 1 -1 1 2 3 -1 1 -2 4 1 -1 -1 1 3 -1 -7 3 4 1 -1 1 2 3 -1 0 -1 6 8 -5 -4 -2 -11 -5 7
-0 0 2 -0 0 -1 -2 0 1 0 3 1 0 -1 1 -0 1 -1 -0 -0 0 1 2 3 5 0 -1 -5 2 -2 -2 -1 3 3 -1 2 2 0 6 8 2 -6 5 -6 -1
1 -4 -3 2 1 0 1 -2 1 -0 -7 -4 -2 1 5 -2 -2 0 -1 3 1 -0 4 6 1 -0 2 6 2 -0 1 2 2 6 2 -8 -2 1 6 -6 5 13 9 9 2
-1 1 -0 -7 -4 -1 -3 -6 -2 6 -4 1 -8 -0 1 1 -1 -4 -1 -0 3 -0 0 7 -5 1 -5 -3 2 1 1 2 -0 -10 5 1 -10 3 5 9 2 -1 1 0 7
13 -5 10 5 -4 4 -1 -6 -5 3 3 0 -2 4 -1 -8 3 -6 -1 7 3 -5 -2 2 1 -1 -7 -5 0 -6 -1 -0 0 -7 0 -4 -15 -9 9 -1 3 5 6 4 8
4 10 1 9 0 2 -11 -0 -4 2 -1 2 -1 0 0 4 3 3 4 -1 1 3 4 4 0 3 -7 1 4 1 -19 -7 4 -0 9 -4 -6 4 1 1 6 12 1 3 2
Height
3120 3117 3115 3112 3110 3107 3105 3102 3098 3096 3093 3090 3086 3083 3078 3073 3070 3068 3068 3068 3066 3064 3063 3062 3062 3061 3062 3062 3061 3062 3061 3058 3061 3061 3062 3073 3072 3078 3084 3091 3087 3091 3095 3098 3108
3119 3116 3113 3110 3108 3105 3102 3099 3095 3092 3088 3084 3080 3075 3072 3069 3066 3064 3063 3062 3062 3060 3060 3058 3058 3056 3055 3056 3055 3055 3052 3049 3055 3057 3054 3058 3057 3063 3075 3078 3079 3084 3089 3093 3100
3116 3113 3110 3108 3104 3101 3098 3095 3091 3087 3083 3080 3076 3073 3070 3066 3063 3061 3059 3058 3057 3056 3054 3053 3051 3050 3049 3049 3048 3046 3043 3045 3047 3050 3051 3052 3054 3056 3057 3069 3073 3076 3082 3088 3094
3113 3110 3107 3104 3101 3098 3095 3091 3088 3085 3080 3077 3073 3069 3067 3064 3065 3058 3055 3053 3051 3049 3047 3046 3044 3043 3043 3041 3041 3039 3038 3039 3040 3041 3041 3041 3042 3042 3050 3057 3072 3076 3080 3086 3090
3111 3108 3104 3100 3097 3094 3091 3088 3085 3082 3078 3074 3071 3067 3065 3063 3061 3054 3051 3047 3043 3042 3041 3040 3038 3036 3034 3034 3034 3030 3030 3031 3031 3031 3031 3035 3034 3036 3038 3049 3068 3071 3075 3079 3085
3109 3105 3101 3098 3094 3091 3087 3085 3082 3079 3076 3072 3069 3066 3062 3059 3055 3050 3047 3043 3040 3038 3036 3034 3033 3031 3028 3027 3026 3026 3025 3023 3024 3023 3024 3026 3028 3031 3030 3043 3048 3061 3066 3072 3079
3105 3102 3098 3095 3091 3087 3084 3081 3078 3075 3072 3069 3067 3062 3059 3057 3051 3045 3041 3038 3035 3033 3030 3030 3029 3027 3024 3022 3021 3019 3018 3017 3016 3016 3016 3024 3018 3020 3029 3033 3037 3050 3059 3067 3074
3102 3099 3095 3092 3088 3084 3080 3077 3074 3071 3068 3066 3063 3060 3056 3053 3048 3041 3037 3034 3031 3028 3027 3025 3024 3022 3020 3020 3017 3016 3014 3011 3010 3009 3009 3013 3003 3017 3024 3028 3033 3042 3050 3060 3067
3098 3094 3091 3088 3083 3081 3077 3073 3071 3068 3065 3063 3059 3056 3054 3050 3045 3039 3034 3030 3027 3025 3023 3019 3018 3018 3017 3016 3015 3012 3008 3006 3003 3000 3003 3005 3000 3010 3019 3017 3027 3035 3044 3052 3060
3094 3090 3087 3084 3080 3077 3073 3070 3067 3065 3062 3059 3056 3056 3052 3048 3042 3037 3032 3027 3024 3022 3019 3015 3015 3013 3010 3009 3006 3005 3003 3000 2998 2996 2996 2996 2995 3003 3009 3014 3021 3030 3038 3045 3053
3089 3085 3081 3079 3076 3073 3070 3068 3065 3063 3059 3056 3053 3049 3047 3044 3040 3035 3029 3026 3023 3021 3020 3018 3016 3010 3009 3007 3006 3003 2999 2995 2994 2993 2994 2993 2996 2998 3004 3006 3014 3022 3032 3040 3049
3082 3078 3074 3074 3071 3069 3067 3064 3060 3060 3054 3050 3046 3045 3043 3041 3037 3033 3028 3026 3023 3021 3018 3017 3008 3007 3004 3001 3000 2997 2996 2991 2990 2990 2991 2991 2995 2999 2999 3001 3007 3017 3026 3035 3043
3076 3072 3068 3067 3066 3065 3063 3061 3057 3053 3048 3044 3042 3041 3041 3039 3035 3031 3028 3025 3023 3019 3018 3014 3007 3002 3000 2994 2996 2991 2992 2987 2989 2983 2988 2989 2990 2991 2995 2998 3001 3010 3022 3031 3038
3073 3068 3064 3062 3062 3061 3059 3056 3053 3049 3045 3042 3040 3039 3038 3035 3033 3029 3026 3025 3022 3019 3014 3008 3003 2998 2995 2990 2992 2989 2986 2987 2989 2988 2987 2991 2989 2986 2989 2993 2994 3003 3014 3025 3035
3071 3066 3063 3059 3059 3057 3056 3053 3049 3047 3044 3041 3038 3036 3035 3035 3032 3027 3025 3021 3019 3017 3015 3007 3002 2995 2986 2981 2981 2982 2981 2985 2988 2987 2987 2987 2987 2977 2980 2982 2990 3000 3010 3020 3029
3068 3065 3061 3058 3055 3054 3052 3050 3047 3047 3039 3037 3035 3033 3032 3030 3029 3025 3023 3021 3018 3013 3009 3003 3001 2998 2990 2982 2980 2978 2979 2982 2983 2986 2988 2986 2986 2977 2969 2970 2986 2997 3007 3015 3023
3064 3060 3056 3053 3052 3049 3048 3047 3047 3041 3038 3035 3033 3031 3028 3026 3024 3023 3020 3018 3016 3013 3008 3003 2999 2996 2993 2988 2984 2984 2985 2986 2987 2985 2980 2981 2987 2978 2977 2979 2987 2995 3002 3010 3012
3059 3055 3051 3048 3046 3045 3045 3046 3043 3037 3036 3033 3032 3029 3027 3024 3022 3020 3017 3015 3012 3011 3008 3005 3000 2997 2994 2990 2987 2987 2985 2984 2984 2983 2982 2989 2983 2977 2977 2982 2990 2999 3004 3009 3017
3054 3051 3047 3044 3042 3042 3043 3042 3038 3037 3035 3033 3031 3027 3024 3022 3022 3018 3016 3013 3011 3009 3009 3005 3001 2998 2994 2992 2995 2989 2992 2992 2991 2988 2987 2983 2977 2975 2975 2979 2985 2993 3001 3008 3006
3050 3046 3043 3041 3040 3040 3040 3038 3036 3034 3033 3031 3030 3027 3023 3022 3020 3017 3014 3012 3010 3008 3007 3004 3001 2997 2995 2994 2991 2992 2994 2994 2989 2985 2981 2980 2978 2978 2975 2976 2980 2985 2993 3003 3011
3045 3041 3039 3038 3037 3037 3035 3034 3033 3032 3031 3029 3026 3024 3022 3020 3019 3017 3014 3010 3007 3006 3005 3003 3001 2997 2995 2993 2993 2992 2990 2990 2988 2988 2987 2983 2977 2976 2977 2976 2979 2982 2989 2996 3005
3041 3039 3036 3033 3035 3032 3031 3031 3031 3029 3028 3026 3024 3022 3020 3018 3015 3014 3011 3010 3007 3005 3003 3002 2997 2992 2989 2988 2989 2989 2990 2990 2991 2991 2990 2987 2979 2974 2973 2974 2978 2983 2989 2995 3000
3037 3036 3033 3031 3030 3029 3028 3028 3027 3025 3023 3021 3020 3019 3017 3015 3015 3009 3007 3006 3004 3002 2999 2998 2995 2992 2986 2986 2984 2984 2985 2988 2988 2988 2986 2986 2982 2976 2973 2974 2979 2984 2987 2993 2998
3034 3032 3030 3027 3027 3027 3026 3025 3023 3021 3018 3017 3014 3013 3010 3009 3010 3004 3002 3001 2999 2998 2997 2995 2991 2990 2987 2986 2985 2984 2983 2983 2985 2985 2983 2984 2983 2980 2978 2978 2980 2982 2985 2989 2996
3030 3028 3025 3024 3024 3023 3022 3021 3018 3016 3013 3011 3006 3006 3006 3004 3002 3000 2998 2996 2994 2992 2990 2988 2984 2984 2982 2982 2981 2979 2980 2981 2980 2980 2978 2979 2981 2980 2982 2983 2985 2982 2982 2985 2991
3026 3024 3019 3017 3017 3016 3016 3014 3012 3010 3009 3005 3002 3002 3000 2997 2997 2994 2993 2991 2988 2985 2984 2982 2978 2977 2973 2975 2975 2971 2971 2972 2974 2974 2973 2972 2971 2976 2979 2981 2982 2985 2986 2988 2990
3021 3019 3016 3009 3009 3009 3010 3009 3005 3004 3000 3000 2997 2994 2993 2993 2991 2988 2985 2983 2982 2979 2979 2978 2975 2973 2966 2968 2966 2961 2956 2959 2961 2964 2966 2965 2968 2969 2972 2974 2976 2979 2982 2985 2988